Content
SEND FEEDBACK

Daily
Averages
Monthly
Summary
Denmark

ESBJERG, DENMARK


Home > Europe > Denmark
Elevation: 95 feet     Latitude: 55 31N     Longitude: 008 33E

WEATHER
 
SELECT A DAY
Number of Records: 255,327;   Date Range: 7/1/96 - 11/21/14
 
SHARE

PRINT THIS DATA

[ ← Previous Day ]
WEATHER ALMANAC - FEBRUARY 13, 2013
[ Next Day → ]
[ °C ]   °F
Weather ElementAverageHighLow
Temperature29.4 °F30.2 °F (9:20 am)28.4 °F (12:50 am)
Dewpoint24.7 °F26.6 °F (8:50 am)21.2 °F (11:50 pm)
Humidity82.6 %93 % (8:50 am)69 % (11:50 pm)
Barometer30.25 in30.33 in (6:50 pm)30.15 in (12:50 am)
Wind Speed4.5 mph10.4 mph (10:50 pm)
Weather ElementAverage
Visibility6.2 mi
Wind DirectionSSE (161.7 °)

Weather ElementTotal
Precipitation---
Heating Degree Days35.7 (Base 65)
Averaged from 47 records on February 13, 2013
WEATHER CONDITIONS BREAKOUT
WIND DIRECTION BREAKOUT
WEATHER BY HOUR - FEBRUARY 13, 2013
[ °C ]   °F
Local TimeTemperatureDewpointHumidityBarometerVisibilityWind DirectionWind SpeedGust SpeedPrecipitationEventsConditions
12:50 AM28.4 °F24.8 °F86 %30.15 in6.2 miNorth (360°)4.6 mphOvercast
1:20 AM28.4 °F24.8 °F86 %30.15 in6.2 miNorth (350°)5.8 mphOvercast
1:50 AM28.4 °F24.8 °F86 %30.15 in6.2 miNorth (350°)5.8 mphOvercast
2:20 AM28.4 °F24.8 °F86 %30.15 in6.2 miNNW (340°)4.6 mphOvercast
2:50 AM28.4 °F24.8 °F86 %30.15 in6.2 miNNW (340°)4.6 mphOvercast
3:20 AM28.4 °F24.8 °F86 %30.18 in6.2 miNorth (350°)4.6 mphOvercast
3:50 AM28.4 °F24.8 °F86 %30.18 in6.2 miNorth (360°)4.6 mphOvercast
4:20 AM28.4 °F24.8 °F86 %30.18 in6.2 miNorth (10°)4.6 mphOvercast
4:50 AM28.4 °F24.8 °F86 %30.18 in6.2 miNE (40°)4.6 mphOvercast
5:20 AM28.4 °F24.8 °F86 %30.18 in6.2 miNE (40°)4.6 mphOvercast
5:50 AM28.4 °F24.8 °F86 %30.18 in6.2 miNNE (30°)2.3 mphOvercast
6:20 AM28.4 °F24.8 °F86 %30.21 in6.2 miENE (60°)2.3 mphOvercast
6:50 AM28.4 °F24.8 °F86 %30.21 in6.2 miENE (60°)2.3 mphOvercast
7:20 AM28.4 °F24.8 °F86 %30.21 in6.2 miENE (60°)1.2 mphOvercast
7:50 AM28.4 °F24.8 °F86 %30.24 in6.2 miNNE (20°)1.2 mphOvercast
8:20 AM28.4 °F24.8 °F86 %30.24 in6.2 miNE (40°)2.3 mphOvercast
8:50 AM28.4 °F26.6 °F93 %30.24 in6.2 miNNE (30°)1.2 mphSnowLight Snow Showers
9:20 AM30.2 °F26.6 °F86 %30.24 in6.2 miENE (60°)2.3 mphOvercast
9:50 AM30.2 °F26.6 °F86 %30.24 in6.2 miEast (90°)2.3 mphOvercast
10:20 AM30.2 °F26.6 °F86 %30.27 in6.2 miESE (110°)1.2 mphOvercast
10:50 AM30.2 °F26.6 °F86 %30.27 in6.2 miSSE (160°)2.3 mphSnowLight Snow
11:20 AM30.2 °F26.6 °F86 %30.27 in6.2 miSE (130°)2.3 mphOvercast
11:50 AM30.2 °F24.8 °F80 %30.27 in6.2 miSSE (150°)2.3 mphOvercast
12:20 PM30.2 °F24.8 °F80 %30.27 in6.2 miSouth (190°)1.2 mphOvercast
12:50 PM30.2 °F24.8 °F80 %30.30 in6.2 miSouth (180°)3.5 mphOvercast
1:20 PM30.2 °F26.6 °F86 %30.30 in6.2 miSouth (180°)4.6 mphOvercast
1:50 PM30.2 °F24.8 °F80 %30.30 in6.2 miSouth (170°)3.5 mphOvercast
2:20 PM30.2 °F26.6 °F86 %30.30 in6.2 miSSW (200°)3.5 mphOvercast
2:50 PM30.2 °F26.6 °F86 %30.30 in6.2 miSSE (150°)3.5 mphOvercast
3:20 PM30.2 °F24.8 °F80 %30.30 in6.2 miSSE (160°)4.6 mphOvercast
3:50 PM30.2 °F24.8 °F80 %30.30 in6.2 miSSW (200°)3.5 mphOvercast
4:20 PM30.2 °F24.8 °F80 %30.30 in6.2 miSouth (170°)4.6 mphOvercast
4:50 PM30.2 °F24.8 °F80 %30.30 in6.2 miSouth (180°)4.6 mphOvercast
5:20 PM30.2 °F24.8 °F80 %30.30 in6.2 miSouth (180°)3.5 mphOvercast
5:50 PM30.2 °F24.8 °F80 %30.30 in6.2 miSouth (180°)4.6 mphMostly Cloudy
6:20 PM30.2 °F24.8 °F80 %30.30 in6.2 miSSE (160°)4.6 mphMostly Cloudy
6:50 PM30.2 °F24.8 °F80 %30.33 in6.2 miSouth (170°)5.8 mphOvercast
7:20 PM30.2 °F23.0 °F75 %30.30 in6.2 miSSE (160°)9.2 mphOvercast
7:50 PM28.4 °F23.0 °F80 %30.30 in6.2 miSSE (160°)6.9 mphOvercast
8:20 PM28.4 °F23.0 °F80 %30.30 in6.2 miSSE (150°)6.9 mph
8:50 PM28.4 °F23.0 °F80 %30.30 in6.2 miSSE (160°)5.8 mph
9:20 PM28.4 °F23.0 °F80 %30.30 in6.2 miSSE (160°)6.9 mphOvercast
9:50 PM30.2 °F23.0 °F75 %30.30 in6.2 miSSE (150°)8.1 mphOvercast
10:20 PM30.2 °F23.0 °F75 %30.30 in6.2 miSSE (160°)9.2 mphOvercast
10:50 PM30.2 °F23.0 °F75 %30.30 in6.2 miSSE (150°)10.4 mphOvercast
11:20 PM30.2 °F23.0 °F75 %30.30 in6.2 miSouth (170°)10.4 mphOvercast
11:50 PM30.2 °F21.2 °F69 %30.30 in6.2 miSouth (170°)8.1 mphOvercast
Hourly data recorded from EKEB, located miles away from Esbjerg, Denmark







STORIES FROM OUR PARTNERS